Weather History for Breckenridge, TX

Change the Weather History Date:

Saturday, April 12, 2014

  Actual Average (KABI) Record (KABI)
Temperature  
Mean Temperature 78 °F 64 °F  
Max Temperature 90 °F 77 °F 98 °F (1972)
Min Temperature 66 °F 51 °F 28 °F (1997)
Degree Days  
Heating Degree Days 0 4  
Month to date heating degree days 63  
Since 1 July heating degree days 2494  
Cooling Degree Days 12 3  
Month to date cooling degree days 28  
Year to date cooling degree days 62  
Growing Degree Days 28 (Base 50)    
Moisture  
Dew Point 56 °F    
Average Humidity 50    
Maximum Humidity 73    
Minimum Humidity 30    
Precipitation  
Precipitation 0.00 in 0.05 in 1.85 in (1954)
Month to date precipitation 0.55  
Year to date precipitation 4.67  
Sea Level Pressure  
Sea Level Pressure 29.79 in    
Wind  
Wind Speed 16 mph (South)    
Max Wind Speed 24 mph    
Max Gust Speed 31 mph    
Visibility 10 miles    
Events      
T = Trace of Precipitation, MM = Missing Value Source: NWS Daily Summary

Daily Weather History Graph

Daily Weather History Graph

Search for Another Location

Airport:

Trip Planner

Search our weather history database for the weather conditions in past years. The results will help you decide how hot, cold, wet, or windy it might be!

Date:

Astronomy

Apr. 12, 2014 Rise Set
Actual Time 7:09 AM CDT 8:03 PM CDT
Civil Twilight 6:44 AM CDT 8:28 PM CDT
Nautical Twilight 6:14 AM CDT 8:58 PM CDT
Astronomical Twilight 5:44 AM CDT 9:29 PM CDT
Moon 5:50 PM CDT (4/12) 5:28 AM CDT (4/12)
Length of Visible Light 13h 44m
Length of Day
12h 53m
Waxing Gibbous, 93% of the Moon is Illuminated
Apr 12
Waxing Gibbous
Apr 15
Full
Apr 22
Last Quarter
Apr 29
New
May 6
First Quarter

Hourly Weather History & Observations

Time (CDT) Temp. Heat Index Dew Point Humidity Pressure Visibility Wind Dir Wind Speed Gust Speed Precip Events Conditions
12:15 AM 75.7 °F - 56.3 °F 51% 29.86 in 10.0 mi SSE 17.3 mph 24.2 mph N/A   Clear
12:35 AM 75.4 °F - 56.3 °F 51% 29.86 in 10.0 mi SSE 13.8 mph 21.9 mph N/A   Clear
12:55 AM 74.8 °F - 56.3 °F 52% 29.86 in 10.0 mi South 13.8 mph 19.6 mph N/A   Clear
1:15 AM 74.5 °F - 55.9 °F 52% 29.85 in 10.0 mi South 15.0 mph 19.6 mph N/A   Clear
1:55 AM 73.4 °F - 55.4 °F 53% 29.85 in 10.0 mi South 12.7 mph 21.9 mph N/A   Clear
2:00 AM 73.4 °F - 55.4 °F 53% 29.85 in 10.0 mi South 16.1 mph 21.9 mph N/A   Clear
2:15 AM 73.0 °F - 55.4 °F 54% 29.85 in 10.0 mi South 15.0 mph 21.9 mph N/A   Clear
2:18 AM 73.4 °F - 55.4 °F 53% 29.85 in 10.0 mi South 15.0 mph 19.6 mph N/A   Clear
2:35 AM 72.7 °F - 55.4 °F 55% 29.85 in 10.0 mi South 16.1 mph 21.9 mph N/A   Clear
2:55 AM 72.1 °F - 55.4 °F 56% 29.85 in 10.0 mi South 16.1 mph 24.2 mph N/A   Clear
3:15 AM 71.8 °F - 55.8 °F 57% 29.84 in 10.0 mi South 18.4 mph 21.9 mph N/A   Clear
3:19 AM 71.6 °F - 55.4 °F 57% 29.84 in 10.0 mi South 16.1 mph 21.9 mph N/A   Clear
3:35 AM 71.2 °F - 55.9 °F 58% 29.84 in 10.0 mi South 15.0 mph 23.0 mph N/A   Clear
3:38 AM 71.6 °F - 55.4 °F 57% 29.84 in 10.0 mi South 15.0 mph 23.0 mph N/A   Clear
3:55 AM 71.1 °F - 55.9 °F 59% 29.84 in 10.0 mi South 16.1 mph 23.0 mph N/A   Clear
3:58 AM 71.6 °F - 55.4 °F 57% 29.84 in 10.0 mi South 16.1 mph 23.0 mph N/A   Clear
4:15 AM 70.9 °F - 56.3 °F 60% 29.84 in 10.0 mi South 13.8 mph 19.6 mph N/A   Clear
4:18 AM 71.6 °F - 55.4 °F 57% 29.84 in 10.0 mi South 13.8 mph 19.6 mph N/A   Clear
4:35 AM 70.5 °F - 56.3 °F 61% 29.83 in 10.0 mi South 17.3 mph 23.0 mph N/A   Clear
4:38 AM 69.8 °F - 57.2 °F 64% 29.83 in 10.0 mi South 15.0 mph 21.9 mph N/A   Clear
4:55 AM 69.8 °F - 56.7 °F 63% 29.83 in 10.0 mi South 13.8 mph 21.9 mph N/A   Clear
4:58 AM 69.8 °F - 57.2 °F 64% 29.83 in 10.0 mi South 12.7 mph 21.9 mph N/A   Clear
5:15 AM 69.3 °F - 57.2 °F 65% 29.82 in 10.0 mi South 17.3 mph 21.9 mph N/A   Clear
5:18 AM 69.8 °F - 57.2 °F 64% 29.82 in 10.0 mi South 13.8 mph 21.9 mph N/A   Clear
5:35 AM 68.5 °F - 57.2 °F 67% 29.83 in 10.0 mi South 9.2 mph 17.3 mph N/A   Clear
5:38 AM 69.8 °F - 57.2 °F 64% 29.84 in 10.0 mi SSW 10.4 mph 17.3 mph N/A   Clear
5:55 AM 68.4 °F - 57.6 °F 68% 29.84 in 10.0 mi South 12.7 mph 17.3 mph N/A   Clear
5:58 AM 69.8 °F - 57.2 °F 64% 29.84 in 10.0 mi South 11.5 mph 19.6 mph N/A   Clear
6:15 AM 68.4 °F - 57.7 °F 69% 29.84 in 10.0 mi SSW 10.4 mph - N/A   Clear
6:18 AM 68.0 °F - 57.2 °F 68% 29.84 in 10.0 mi South 12.7 mph - N/A   Clear
6:35 AM 68.0 °F - 58.1 °F 71% 29.85 in 10.0 mi South 12.7 mph 17.3 mph N/A   Clear
6:38 AM 68.0 °F - 57.2 °F 68% 29.85 in 10.0 mi South 11.5 mph 17.3 mph N/A   Clear
6:55 AM 67.5 °F - 58.1 °F 72% 29.85 in 10.0 mi South 12.7 mph 19.6 mph N/A   Clear
6:58 AM 68.0 °F - 57.2 °F 68% 29.85 in 10.0 mi South 13.8 mph 19.6 mph N/A   Clear
7:15 AM 67.1 °F - 58.1 °F 73% 29.86 in 10.0 mi South 12.7 mph - N/A   Clear
7:18 AM 66.2 °F - 57.2 °F 73% 29.86 in 10.0 mi South 13.8 mph 18.4 mph N/A   Clear
7:35 AM 67.1 °F - 58.1 °F 73% 29.86 in 10.0 mi SSW 11.5 mph - N/A   Clear
7:38 AM 66.2 °F - 57.2 °F 73% 29.86 in 10.0 mi South 11.5 mph - N/A   Clear
7:55 AM 66.9 °F - 58.1 °F 73% 29.87 in 10.0 mi South 12.7 mph 17.3 mph N/A   Clear
7:58 AM 66.2 °F - 57.2 °F 73% 29.87 in 10.0 mi South 11.5 mph - N/A   Clear
8:15 AM 67.5 °F - 58.5 °F 73% 29.88 in 10.0 mi SSW 15.0 mph 20.7 mph N/A   Clear
8:18 AM 68.0 °F - 57.2 °F 68% 29.88 in 10.0 mi South 13.8 mph 20.7 mph N/A   Clear
8:35 AM 68.2 °F - 58.5 °F 71% 29.88 in 10.0 mi South 16.1 mph 23.0 mph N/A   Clear
8:38 AM 68.0 °F - 59.0 °F 73% 29.88 in 10.0 mi South 15.0 mph 23.0 mph N/A   Clear
8:55 AM 69.1 °F - 58.5 °F 69% 29.87 in 10.0 mi South 17.3 mph 24.2 mph N/A   Clear
8:58 AM 69.8 °F - 59.0 °F 68% 29.87 in 10.0 mi South 18.4 mph 25.3 mph N/A   Clear
9:15 AM 69.6 °F - 58.3 °F 67% 29.87 in 10.0 mi South 18.4 mph 28.8 mph N/A   Clear
9:18 AM 69.8 °F - 57.2 °F 64% 29.87 in 10.0 mi South 19.6 mph 28.8 mph N/A   Clear
9:35 AM 70.3 °F - 58.1 °F 65% 29.87 in 10.0 mi South 18.4 mph 25.3 mph N/A   Clear
9:38 AM 71.6 °F - 57.2 °F 60% 29.87 in 10.0 mi South 18.4 mph 25.3 mph N/A   Clear
9:55 AM 71.8 °F - 57.6 °F 61% 29.87 in 10.0 mi South 19.6 mph 24.2 mph N/A   Clear
9:58 AM 71.6 °F - 57.2 °F 60% 29.87 in 10.0 mi South 20.7 mph 26.5 mph N/A   Clear
10:15 AM 73.8 °F - 57.4 °F 56% 29.87 in 10.0 mi South 20.7 mph 27.6 mph N/A   Clear
10:18 AM 73.4 °F - 57.2 °F 57% 29.88 in 10.0 mi South 18.4 mph 27.6 mph N/A   Clear
10:35 AM 75.6 °F - 57.2 °F 53% 29.88 in 10.0 mi SSW 19.6 mph 26.5 mph N/A   Clear
10:38 AM 75.2 °F - 57.2 °F 53% 29.88 in 10.0 mi SSW 18.4 mph 26.5 mph N/A   Clear
10:55 AM 76.1 °F - 56.8 °F 51% 29.87 in 10.0 mi South 20.7 mph 25.3 mph N/A   Clear
10:58 AM 75.2 °F - 57.2 °F 53% 29.87 in 10.0 mi South 20.7 mph 25.3 mph N/A   Clear
11:15 AM 77.0 °F - 57.2 °F 50% 29.88 in 10.0 mi South 20.7 mph 26.5 mph N/A   Clear
11:18 AM 77.0 °F - 57.2 °F 50% 29.87 in 10.0 mi SSW 17.3 mph 26.5 mph N/A   Clear
11:35 AM 79.0 °F - 57.2 °F 47% 29.87 in 10.0 mi South 16.1 mph 25.3 mph N/A   Clear
11:38 AM 78.8 °F - 57.2 °F 47% 29.87 in 10.0 mi South 12.7 mph 21.9 mph N/A   Clear
11:55 AM 79.9 °F - 57.4 °F 46% 29.85 in 10.0 mi South 13.8 mph 21.9 mph N/A   Clear
11:58 AM 80.6 °F 80.8 °F 57.2 °F 45% 29.85 in 10.0 mi South 16.1 mph 21.9 mph N/A   Clear
12:15 PM 81.0 °F 80.9 °F 56.7 °F 43% 29.84 in 10.0 mi South 18.4 mph 24.2 mph N/A   Clear
12:18 PM 80.6 °F 80.8 °F 57.2 °F 45% 29.84 in 10.0 mi South 19.6 mph 24.2 mph N/A   Clear
12:35 PM 82.9 °F 82.1 °F 55.9 °F 39% 29.84 in 10.0 mi South 20.7 mph 26.5 mph N/A   Clear
12:38 PM 82.4 °F 81.7 °F 55.4 °F 39% 29.83 in 10.0 mi South 18.4 mph 26.5 mph N/A   Clear
12:55 PM 83.7 °F 82.7 °F 55.8 °F 38% 29.83 in 10.0 mi SSW 18.4 mph 24.2 mph N/A   Clear
12:58 PM 84.2 °F 83.0 °F 55.4 °F 37% 29.83 in 10.0 mi SSW 19.6 mph 27.6 mph N/A   Clear
1:15 PM 83.5 °F 82.5 °F 55.0 °F 38% 29.81 in 10.0 mi South 17.3 mph 25.3 mph N/A   Clear
1:18 PM 84.2 °F 83.0 °F 55.4 °F 37% 29.81 in 10.0 mi South 16.1 mph 25.3 mph N/A   Clear
1:35 PM 86.0 °F 84.3 °F 54.7 °F 34% 29.81 in 10.0 mi SSW 16.1 mph 25.3 mph N/A   Clear
1:38 PM 86.0 °F 84.5 °F 55.4 °F 35% 29.80 in 10.0 mi SSW 13.8 mph 25.3 mph N/A   Clear
1:55 PM 86.4 °F 84.5 °F 54.1 °F 33% 29.79 in 10.0 mi SW 16.1 mph 21.9 mph N/A   Clear
1:58 PM 87.8 °F 85.7 °F 53.6 °F 31% 29.79 in 10.0 mi SSW 18.4 mph 24.2 mph N/A   Clear
2:15 PM 86.2 °F 84.5 °F 54.7 °F 34% 29.78 in 10.0 mi South 17.3 mph 27.6 mph N/A   Clear
2:18 PM 87.8 °F 86.1 °F 55.4 °F 33% 29.78 in 10.0 mi South 17.3 mph 27.6 mph N/A   Clear
2:35 PM 86.7 °F 84.9 °F 54.1 °F 33% 29.78 in 10.0 mi SSW 18.4 mph 28.8 mph N/A   Clear
2:38 PM 87.8 °F 86.1 °F 55.4 °F 33% 29.77 in 10.0 mi South 19.6 mph 27.6 mph N/A   Clear
2:55 PM 87.8 °F 85.9 °F 54.5 °F 32% 29.76 in 10.0 mi South 19.6 mph 24.2 mph N/A   Clear
2:58 PM 87.8 °F 86.1 °F 55.4 °F 33% 29.76 in 10.0 mi South 13.8 mph 24.2 mph N/A   Clear
3:15 PM 89.6 °F 87.5 °F 54.3 °F 30% 29.76 in 10.0 mi South 20.7 mph 25.3 mph N/A   Clear
3:18 PM 89.6 °F 87.7 °F 55.4 °F 31% 29.75 in 10.0 mi SSW 17.3 mph 25.3 mph N/A   Clear
3:35 PM 89.1 °F 87.1 °F 54.7 °F 31% 29.75 in 10.0 mi SSE 18.4 mph 28.8 mph N/A   Clear
3:55 PM 88.2 °F 86.5 °F 55.4 °F 33% 29.74 in 10.0 mi SSW 18.4 mph 26.5 mph N/A   Clear
4:15 PM 89.2 °F 87.5 °F 55.8 °F 32% 29.73 in 10.0 mi South 18.4 mph 25.3 mph N/A   Clear
4:35 PM 87.3 °F 85.7 °F 55.4 °F 34% 29.72 in 10.0 mi South 21.9 mph 27.6 mph N/A   Clear
4:38 PM 87.8 °F 86.1 °F 55.4 °F 33% 29.72 in 10.0 mi South 18.4 mph 27.6 mph N/A   Clear
4:55 PM 86.9 °F 85.3 °F 55.4 °F 34% 29.71 in 10.0 mi South 18.4 mph 29.9 mph N/A   Clear
4:58 PM 87.8 °F 86.1 °F 55.4 °F 33% 29.71 in 10.0 mi South 21.9 mph 26.5 mph N/A   Clear
5:15 PM 86.0 °F 84.3 °F 54.9 °F 34% 29.71 in 10.0 mi South 19.6 mph 28.8 mph N/A   Clear
5:18 PM 86.0 °F 84.5 °F 55.4 °F 35% 29.70 in 10.0 mi South 17.3 mph 28.8 mph N/A   Clear
5:35 PM 86.2 °F 84.5 °F 54.9 °F 34% 29.70 in 10.0 mi South 16.1 mph 23.0 mph N/A   Clear
5:38 PM 86.0 °F 84.5 °F 55.4 °F 35% 29.71 in 10.0 mi South 21.9 mph 27.6 mph N/A   Clear
5:55 PM 86.0 °F 84.3 °F 54.7 °F 34% 29.70 in 10.0 mi South 19.6 mph 26.5 mph N/A   Clear
6:15 PM 86.0 °F 84.3 °F 54.5 °F 34% 29.69 in 10.0 mi South 15.0 mph 27.6 mph N/A   Clear
6:18 PM 86.0 °F 84.5 °F 55.4 °F 35% 29.69 in 10.0 mi South 18.4 mph 21.9 mph N/A   Clear
6:35 PM 86.0 °F 84.3 °F 54.5 °F 34% 29.69 in 10.0 mi South 15.0 mph 28.8 mph N/A   Clear
6:38 PM 86.0 °F 84.5 °F 55.4 °F 35% 29.69 in 10.0 mi South 15.0 mph 28.8 mph N/A   Clear
6:55 PM 85.3 °F 83.9 °F 55.6 °F 36% 29.68 in 10.0 mi SSE 17.3 mph 24.2 mph N/A   Clear
7:15 PM 85.1 °F 83.6 °F 54.9 °F 35% 29.68 in 10.0 mi SSE 18.4 mph 31.1 mph N/A   Clear
7:18 PM 84.2 °F 83.0 °F 55.4 °F 37% 29.68 in 10.0 mi SSE 18.4 mph 31.1 mph N/A   Clear
7:35 PM 84.4 °F 83.4 °F 56.3 °F 38% 29.69 in 10.0 mi South 18.4 mph 28.8 mph N/A   Clear
7:38 PM 84.2 °F 83.5 °F 57.2 °F 40% 29.69 in 10.0 mi South 13.8 mph 27.6 mph N/A   Clear
7:55 PM 83.7 °F 83.0 °F 57.0 °F 40% 29.69 in 10.0 mi South 20.7 mph 26.5 mph N/A   Clear
7:58 PM 84.2 °F 83.5 °F 57.2 °F 40% 29.69 in 10.0 mi South 17.3 mph 26.5 mph N/A   Clear
8:15 PM 82.9 °F 82.4 °F 57.2 °F 41% 29.69 in 10.0 mi South 18.4 mph 24.2 mph N/A   Clear
8:35 PM 82.8 °F 82.4 °F 57.2 °F 42% 29.69 in 10.0 mi South 24.2 mph 29.9 mph N/A   Clear
8:55 PM 82.4 °F 82.0 °F 57.2 °F 42% 29.69 in 10.0 mi South 17.3 mph 26.5 mph N/A   Clear
8:58 PM 82.4 °F 82.0 °F 57.2 °F 42% 29.69 in 10.0 mi South 17.3 mph 26.5 mph N/A   Clear
9:15 PM 81.7 °F 81.5 °F 57.2 °F 43% 29.70 in 10.0 mi SSE 15.0 mph 24.2 mph N/A   Clear
9:18 PM 80.6 °F 80.8 °F 57.2 °F 45% 29.70 in 10.0 mi SSE 15.0 mph 21.9 mph N/A   Clear
9:35 PM 80.6 °F 80.9 °F 58.3 °F 46% 29.70 in 10.0 mi SSE 15.0 mph 23.0 mph N/A   Clear
9:38 PM 80.6 °F 80.8 °F 57.2 °F 45% 29.70 in 10.0 mi SSE 15.0 mph 23.0 mph N/A   Clear
10:15 PM 79.7 °F - 58.1 °F 47% 29.70 in 10.0 mi South 20.7 mph 27.6 mph N/A   Clear
10:18 PM 80.6 °F 80.8 °F 57.2 °F 45% 29.70 in 10.0 mi South 19.6 mph 27.6 mph N/A   Clear
10:35 PM 79.9 °F - 57.6 °F 46% 29.70 in 10.0 mi South 18.4 mph 26.5 mph N/A   Clear
10:38 PM 80.6 °F 80.8 °F 57.2 °F 45% 29.71 in 10.0 mi South 21.9 mph 26.5 mph N/A   Clear
10:55 PM 80.1 °F 80.4 °F 56.7 °F 45% 29.71 in 10.0 mi South 20.7 mph 29.9 mph N/A   Clear
10:58 PM 80.6 °F 80.5 °F 55.4 °F 42% 29.71 in 10.0 mi South 18.4 mph 29.9 mph N/A   Clear
11:15 PM 79.9 °F - 55.8 °F 43% 29.71 in 10.0 mi South 18.4 mph 25.3 mph N/A   Clear
11:18 PM 80.6 °F 80.5 °F 55.4 °F 42% 29.70 in 10.0 mi South 16.1 mph 24.2 mph N/A   Clear
11:35 PM 80.1 °F 80.2 °F 55.4 °F 43% 29.70 in 10.0 mi South 16.1 mph 29.9 mph N/A   Clear
11:38 PM 80.6 °F 80.5 °F 55.4 °F 42% 29.71 in 10.0 mi South 19.6 mph 25.3 mph N/A   Clear
11:55 PM 80.1 °F 80.2 °F 55.4 °F 43% 29.70 in 10.0 mi South 20.7 mph 26.5 mph N/A   Clear